Time,TemperatureF,DewpointF,PressureIn,WindDirection,WindDirectionDegrees,WindSpeedMPH,WindSpeedGustMPH,Humidity,HourlyPrecipIn,Conditions,Clouds,dailyrainin,SoftwareType,DateUTC
2013-02-01 00:02:00,22.4,10.0,29.48,SW,226,1.0,7.0,60,0.00,,,0.62,weatherlink.com 1.10,2013-02-01 05:02:00,
2013-02-01 00:17:00,22.4,10.0,29.49,East,86,1.0,11.0,58,0.00,,,0.00,weatherlink.com 1.10,2013-02-01 05:17:00,
2013-02-01 00:32:00,22.2,10.0,29.49,NE,44,6.0,6.0,59,0.00,,,0.00,weatherlink.com 1.10,2013-02-01 05:32:00,
2013-02-01 00:47:00,22.2,9.0,29.50,East,90,1.0,15.0,56,0.00,,,0.00,weatherlink.com 1.10,2013-02-01 05:47:00,
2013-02-01 01:02:00,22.0,9.0,29.50,SW,231,0.0,12.0,57,0.00,,,0.00,weatherlink.com 1.10,2013-02-01 06:02:00,
2013-02-01 01:18:00,22.1,8.0,29.50,NE,55,10.0,19.0,56,0.00,,,0.00,weatherlink.com 1.10,2013-02-01 06:18:00,
2013-02-01 01:32:00,22.1,9.0,29.51,East,79,1.0,7.0,57,0.00,,,0.00,weatherlink.com 1.10,2013-02-01 06:32:00,
2013-02-01 01:48:00,21.9,9.0,29.52,SW,219,1.0,9.0,57,0.00,,,0.00,weatherlink.com 1.10,2013-02-01 06:48:00,
2013-02-01 02:03:00,21.8,9.0,29.52,ENE,67,3.0,8.0,57,0.00,,,0.00,weatherlink.com 1.10,2013-02-01 07:03:00,
2013-02-01 02:18:00,21.7,8.0,29.52,East,98,14.0,14.0,57,0.00,,,0.00,weatherlink.com 1.10,2013-02-01 07:18:00,
2013-02-01 02:33:00,21.6,9.0,29.53,NNE,24,4.0,5.0,58,0.00,,,0.00,weatherlink.com 1.10,2013-02-01 07:33:00,
2013-02-01 02:49:00,21.3,9.0,29.53,NE,42,0.0,16.0,60,0.00,,,0.00,weatherlink.com 1.10,2013-02-01 07:49:00,
2013-02-01 03:03:00,21.3,9.0,29.53,South,171,5.0,15.0,59,0.00,,,0.00,weatherlink.com 1.10,2013-02-01 08:03:00,
2013-02-01 03:18:00,21.1,9.0,29.53,ENE,57,0.0,8.0,60,0.00,,,0.00,weatherlink.com 1.10,2013-02-01 08:18:00,
2013-02-01 03:33:00,20.8,11.0,29.54,SW,229,1.0,6.0,66,0.00,,,0.00,weatherlink.com 1.10,2013-02-01 08:33:00,
2013-02-01 03:49:00,19.9,13.0,29.55,SE,130,1.0,5.0,73,0.00,,,0.00,weatherlink.com 1.10,2013-02-01 08:49:00,
2013-02-01 04:03:00,18.0,12.0,29.56,South,187,1.0,9.0,77,0.00,,,0.00,weatherlink.com 1.10,2013-02-01 09:03:00,
2013-02-01 04:19:00,16.4,11.0,29.57,SSW,203,0.0,6.0,79,0.00,,,0.00,weatherlink.com 1.10,2013-02-01 09:19:00,
2013-02-01 04:33:00,15.8,12.0,29.58,South,172,1.0,6.0,83,0.00,,,0.00,weatherlink.com 1.10,2013-02-01 09:33:00,
2013-02-01 04:48:00,15.2,11.0,29.59,SSW,197,3.0,7.0,84,0.00,,,0.00,weatherlink.com 1.10,2013-02-01 09:48:00,
2013-02-01 05:03:00,14.9,11.0,29.59,SSW,194,0.0,6.0,85,0.00,,,0.00,weatherlink.com 1.10,2013-02-01 10:03:00,
2013-02-01 05:18:00,14.9,11.0,29.60,SW,232,0.0,4.0,85,0.00,,,0.00,weatherlink.com 1.10,2013-02-01 10:18:00,
2013-02-01 05:33:00,14.8,11.0,29.61,South,178,0.0,5.0,85,0.00,,,0.00,weatherlink.com 1.10,2013-02-01 10:33:00,
2013-02-01 05:48:00,14.8,11.0,29.61,SSW,194,1.0,3.0,85,0.00,,,0.00,weatherlink.com 1.10,2013-02-01 10:48:00,
2013-02-01 06:03:00,14.6,11.0,29.62,South,188,0.0,6.0,84,0.00,,,0.00,weatherlink.com 1.10,2013-02-01 11:03:00,
2013-02-01 06:19:00,14.6,11.0,29.63,South,188,0.0,4.0,84,0.00,,,0.00,weatherlink.com 1.10,2013-02-01 11:19:00,
2013-02-01 06:33:00,14.5,10.0,29.63,SW,217,0.0,1.0,83,0.00,,,0.00,weatherlink.com 1.10,2013-02-01 11:33:00,
2013-02-01 06:48:00,14.7,11.0,29.64,SW,217,0.0,1.0,84,0.00,,,0.00,weatherlink.com 1.10,2013-02-01 11:48:00,
2013-02-01 07:03:00,14.8,10.0,29.65,SSW,195,0.0,1.0,81,0.00,,,0.00,weatherlink.com 1.10,2013-02-01 12:03:00,
2013-02-01 07:19:00,15.1,11.0,29.66,SSW,197,0.0,1.0,83,0.00,,,0.00,weatherlink.com 1.10,2013-02-01 12:19:00,
2013-02-01 07:34:00,15.6,11.0,29.67,South,190,1.0,5.0,81,0.00,,,0.00,weatherlink.com 1.10,2013-02-01 12:34:00,
2013-02-01 07:49:00,16.0,11.0,29.68,SW,217,0.0,6.0,82,0.00,,,0.00,weatherlink.com 1.10,2013-02-01 12:49:00,
2013-02-01 08:04:00,15.8,11.0,29.69,SE,144,1.0,7.0,82,0.00,,,0.00,weatherlink.com 1.10,2013-02-01 13:04:00,
2013-02-01 08:19:00,15.9,11.0,29.71,SW,236,0.0,7.0,82,0.00,,,0.00,weatherlink.com 1.10,2013-02-01 13:19:00,
2013-02-01 08:34:00,16.1,12.0,29.72,SW,223,0.0,7.0,82,0.00,,,0.00,weatherlink.com 1.10,2013-02-01 13:34:00,
2013-02-01 08:49:00,16.0,12.0,29.73,SW,230,0.0,3.0,83,0.00,,,0.00,weatherlink.com 1.10,2013-02-01 13:49:00,
2013-02-01 09:04:00,16.2,12.0,29.73,SSW,197,0.0,5.0,83,0.00,,,0.00,weatherlink.com 1.10,2013-02-01 14:04:00,
2013-02-01 09:19:00,16.1,12.0,29.74,WSW,242,0.0,8.0,83,0.00,,,0.00,weatherlink.com 1.10,2013-02-01 14:19:00,
2013-02-01 09:34:00,15.9,12.0,29.75,SE,140,0.0,6.0,83,0.00,,,0.00,weatherlink.com 1.10,2013-02-01 14:34:00,
2013-02-01 09:49:00,16.1,12.0,29.76,WSW,240,1.0,9.0,83,0.00,,,0.00,weatherlink.com 1.10,2013-02-01 14:49:00,
2013-02-01 10:04:00,16.3,12.0,29.77,SW,229,1.0,8.0,82,0.00,,,0.00,weatherlink.com 1.10,2013-02-01 15:04:00,
2013-02-01 10:19:00,16.4,12.0,29.78,WSW,237,0.0,5.0,83,0.00,,,0.00,weatherlink.com 1.10,2013-02-01 15:19:00,
2013-02-01 10:34:00,16.7,12.0,29.79,SW,219,2.0,6.0,83,0.00,,,0.00,weatherlink.com 1.10,2013-02-01 15:34:00,
2013-02-01 10:49:00,16.7,12.0,29.80,SW,223,0.0,7.0,82,0.00,,,0.00,weatherlink.com 1.10,2013-02-01 15:49:00,
2013-02-01 11:04:00,17.0,12.0,29.80,South,170,1.0,5.0,81,0.00,,,0.00,weatherlink.com 1.10,2013-02-01 16:04:00,
2013-02-01 11:19:00,16.6,12.0,29.81,SSW,209,1.0,6.0,81,0.00,,,0.00,weatherlink.com 1.10,2013-02-01 16:19:00,
2013-02-01 11:34:00,16.4,12.0,29.81,SE,146,2.0,7.0,81,0.00,,,0.00,weatherlink.com 1.10,2013-02-01 16:34:00,
2013-02-01 11:49:00,16.8,12.0,29.81,SSW,204,2.0,5.0,81,0.00,,,0.00,weatherlink.com 1.10,2013-02-01 16:49:00,
2013-02-01 12:04:00,17.7,13.0,29.82,South,186,0.0,7.0,81,0.00,,,0.00,weatherlink.com 1.10,2013-02-01 17:04:00,
2013-02-01 12:19:00,18.5,13.0,29.82,SSW,209,0.0,5.0,78,0.00,,,0.00,weatherlink.com 1.10,2013-02-01 17:19:00,
2013-02-01 12:34:00,19.0,13.0,29.82,SSW,206,1.0,3.0,76,0.00,,,0.00,weatherlink.com 1.10,2013-02-01 17:34:00,
2013-02-01 12:49:00,20.4,14.0,29.82,SSW,196,6.0,7.0,75,0.00,,,0.00,weatherlink.com 1.10,2013-02-01 17:49:00,
2013-02-01 13:04:00,21.2,14.0,29.81,SW,227,1.0,7.0,75,0.00,,,0.00,weatherlink.com 1.10,2013-02-01 18:04:00,
2013-02-01 13:20:00,21.9,14.0,29.81,SW,229,3.0,6.0,72,0.00,,,0.00,weatherlink.com 1.10,2013-02-01 18:20:00,
2013-02-01 13:35:00,20.7,14.0,29.82,South,186,1.0,6.0,74,0.00,,,0.00,weatherlink.com 1.10,2013-02-01 18:35:00,
2013-02-01 13:50:00,20.1,13.0,29.83,SSW,193,2.0,7.0,75,0.00,,,0.00,weatherlink.com 1.10,2013-02-01 18:50:00,
2013-02-01 14:04:00,19.4,12.0,29.83,SSE,161,0.0,5.0,73,0.00,,,0.00,weatherlink.com 1.10,2013-02-01 19:04:00,
2013-02-01 14:19:00,20.0,11.0,29.83,SSW,201,0.0,6.0,69,0.00,,,0.00,weatherlink.com 1.10,2013-02-01 19:19:00,
2013-02-01 14:34:00,20.3,10.0,29.84,East,94,1.0,10.0,65,0.00,,,0.00,weatherlink.com 1.10,2013-02-01 19:34:00,
2013-02-01 14:49:00,21.7,10.0,29.84,SSW,197,4.0,7.0,60,0.00,,,0.00,weatherlink.com 1.10,2013-02-01 19:49:00,
2013-02-01 15:04:00,22.2,9.0,29.85,SSE,154,3.0,10.0,57,0.00,,,0.00,weatherlink.com 1.10,2013-02-01 20:04:00,
2013-02-01 15:19:00,19.9,8.0,29.86,South,176,0.0,8.0,59,0.00,,,0.00,weatherlink.com 1.10,2013-02-01 20:19:00,
2013-02-01 15:35:00,19.4,7.0,29.86,SW,215,3.0,7.0,59,0.00,,,0.00,weatherlink.com 1.10,2013-02-01 20:35:00,
2013-02-01 15:49:00,18.8,6.0,29.86,SSW,209,0.0,7.0,58,0.00,,,0.00,weatherlink.com 1.10,2013-02-01 20:49:00,
2013-02-01 16:04:00,18.6,7.0,29.86,SE,142,0.0,6.0,60,0.00,,,0.00,weatherlink.com 1.10,2013-02-01 21:04:00,
2013-02-01 16:19:00,18.3,6.0,29.88,SW,229,1.0,8.0,59,0.00,,,0.00,weatherlink.com 1.10,2013-02-01 21:19:00,
2013-02-01 16:35:00,17.6,6.0,29.88,SW,220,2.0,7.0,60,0.00,,,0.00,weatherlink.com 1.10,2013-02-01 21:35:00,
2013-02-01 16:50:00,16.8,5.0,29.89,SW,216,0.0,6.0,60,0.00,,,0.00,weatherlink.com 1.10,2013-02-01 21:50:00,
2013-02-01 17:05:00,16.1,5.0,29.90,SSW,213,0.0,5.0,61,0.00,,,0.00,weatherlink.com 1.10,2013-02-01 22:05:00,
2013-02-01 17:20:00,15.4,4.0,29.91,South,176,1.0,5.0,62,0.00,,,0.00,weatherlink.com 1.10,2013-02-01 22:20:00,
2013-02-01 17:35:00,14.9,4.0,29.92,WSW,246,0.0,4.0,63,0.00,,,0.00,weatherlink.com 1.10,2013-02-01 22:35:00,
2013-02-01 17:50:00,14.5,5.0,29.93,SW,223,1.0,3.0,65,0.00,,,0.00,weatherlink.com 1.10,2013-02-01 22:50:00,
2013-02-01 18:05:00,14.6,5.0,29.94,SW,231,0.0,4.0,67,0.00,,,0.00,weatherlink.com 1.10,2013-02-01 23:05:00,
2013-02-01 18:20:00,15.0,5.0,29.95,SSW,199,2.0,6.0,66,0.00,,,0.00,weatherlink.com 1.10,2013-02-01 23:20:00,
2013-02-01 18:36:00,15.3,5.0,29.96,SW,221,0.0,5.0,64,0.00,,,0.00,weatherlink.com 1.10,2013-02-01 23:36:00,
2013-02-01 18:50:00,15.3,5.0,29.97,SW,225,1.0,9.0,65,0.00,,,0.00,weatherlink.com 1.10,2013-02-01 23:50:00,
2013-02-01 19:05:00,15.3,5.0,29.98,SW,219,3.0,5.0,65,0.00,,,0.00,weatherlink.com 1.10,2013-02-02 00:05:00,
2013-02-01 19:20:00,15.3,6.0,29.98,SSW,202,0.0,3.0,67,0.00,,,0.00,weatherlink.com 1.10,2013-02-02 00:20:00,
2013-02-01 19:35:00,15.1,6.0,29.99,SSW,202,0.0,4.0,67,0.00,,,0.00,weatherlink.com 1.10,2013-02-02 00:35:00,
2013-02-01 19:51:00,15.0,7.0,29.99,South,188,0.0,2.0,69,0.00,,,0.00,weatherlink.com 1.10,2013-02-02 00:51:00,
2013-02-01 20:05:00,14.9,6.0,30.00,SW,218,0.0,3.0,68,0.00,,,0.00,weatherlink.com 1.10,2013-02-02 01:05:00,
2013-02-01 20:20:00,14.9,6.0,30.00,WSW,240,0.0,3.0,69,0.00,,,0.00,weatherlink.com 1.10,2013-02-02 01:20:00,
2013-02-01 20:35:00,14.9,7.0,30.01,South,186,0.0,5.0,70,0.00,,,0.00,weatherlink.com 1.10,2013-02-02 01:35:00,
2013-02-01 20:50:00,15.0,7.0,30.01,South,185,1.0,3.0,70,0.00,,,0.00,weatherlink.com 1.10,2013-02-02 01:50:00,
2013-02-01 21:05:00,14.9,7.0,30.01,South,189,0.0,1.0,70,0.00,,,0.00,weatherlink.com 1.10,2013-02-02 02:05:00,
2013-02-01 21:21:00,14.7,6.0,30.02,South,188,0.0,2.0,69,0.00,,,0.00,weatherlink.com 1.10,2013-02-02 02:21:00,
2013-02-01 21:36:00,14.5,6.0,30.02,South,171,1.0,3.0,70,0.00,,,0.00,weatherlink.com 1.10,2013-02-02 02:36:00,
2013-02-01 21:50:00,14.3,6.0,30.03,South,175,0.0,1.0,69,0.00,,,0.00,weatherlink.com 1.10,2013-02-02 02:50:00,
2013-02-01 22:05:00,14.1,6.0,30.04,SSW,205,0.0,4.0,71,0.00,,,0.00,weatherlink.com 1.10,2013-02-02 03:05:00,
2013-02-01 22:20:00,13.7,6.0,30.04,SW,225,0.0,7.0,71,0.00,,,0.00,weatherlink.com 1.10,2013-02-02 03:20:00,
2013-02-01 22:35:00,13.0,5.0,30.05,WSW,250,3.0,8.0,71,0.00,,,0.00,weatherlink.com 1.10,2013-02-02 03:35:00,
2013-02-01 22:50:00,11.9,5.0,30.06,ENE,61,3.0,11.0,74,0.00,,,0.00,weatherlink.com 1.10,2013-02-02 03:50:00,
2013-02-01 23:05:00,11.3,5.0,30.07,South,188,2.0,7.0,77,0.00,,,0.00,weatherlink.com 1.10,2013-02-02 04:05:00,
2013-02-01 23:22:00,10.9,6.0,30.08,SSW,196,0.0,6.0,80,0.00,,,0.00,weatherlink.com 1.10,2013-02-02 04:22:00,
2013-02-01 23:36:00,10.8,6.0,30.09,South,188,0.0,3.0,80,0.00,,,0.00,weatherlink.com 1.10,2013-02-02 04:36:00,
2013-02-01 23:51:00,10.4,5.0,30.09,South,191,1.0,5.0,80,0.00,,,0.00,weatherlink.com 1.10,2013-02-02 04:51:00,